This is the latest recevied weather packets stored in our database for station/object KK4XZ. If no packets are shown the sender has not sent any weather packets the latest 10 day(s).
| Time | Temp. | Humidity | Pressure | Rain* | Wind** | Luminosity | Snow |
|---|---|---|---|---|---|---|---|
| 1777764931 | 12.78° C | 97% | 1010.9 hPa | 0 mm | - | - | - |
| 1777764326 | 13.33° C | 97% | 1010.8 hPa | 0 mm | - | - | - |
| 1777763721 | 13.33° C | 97% | 1010.8 hPa | 0 mm | - | - | - |
| 1777763136 | 13.33° C | 97% | 1010.6 hPa | 0 mm | - | - | - |
| 1777762532 | 13.33° C | 97% | 1010.7 hPa | 0 mm | - | - | - |
| 1777761927 | 13.33° C | 97% | 1010.5 hPa | 0.25 mm | - | - | - |
| 1777761322 | 13.33° C | 97% | 1010.6 hPa | 0.25 mm | - | - | - |
| 1777760717 | 13.33° C | 97% | 1010.6 hPa | 0.51 mm | - | - | - |
| 1777760132 | 13.33° C | 97% | 1010.6 hPa | 0.76 mm | - | - | - |
| 1777759528 | 13.33° C | 97% | 1010.5 hPa | 1.27 mm | - | - | - |
| 1777758922 | 13.33° C | 97% | 1010.3 hPa | 1.52 mm | - | - | - |
| 1777758317 | 13.33° C | 97% | 1009.9 hPa | 1.52 mm | - | - | - |
| 1777757733 | 13.33° C | 97% | 1010.1 hPa | 1.27 mm | - | - | - |
| 1777757128 | 13.33° C | 97% | 1009.8 hPa | 1.27 mm | - | - | - |
| 1777756523 | 13.33° C | 97% | 1009.8 hPa | 1.02 mm | - | - | - |
| 1777755918 | 13.33° C | 97% | 1010.1 hPa | 0.51 mm | - | - | - |
| 1777755333 | 13.33° C | 97% | 1010.1 hPa | 0.25 mm | - | - | - |
| 1777754729 | 13.33° C | 97% | 1009.7 hPa | 0.25 mm | - | - | - |
| 1777754124 | 13.33° C | 97% | 1009.3 hPa | 0.25 mm | - | - | - |
| 1777753519 | 13.89° C | 97% | 1009.1 hPa | 0 mm | - | - | - |
| 1777752935 | 13.89° C | 97% | 1009.3 hPa | 0 mm | - | - | - |
| 1777752330 | 13.89° C | 97% | 1009.7 hPa | 0 mm | - | - | - |
| 1777751725 | 13.89° C | 97% | 1010 hPa | 0.25 mm | - | - | - |
| 1777751120 | 13.89° C | 97% | 1009.9 hPa | 0.25 mm | - | - | - |
| 1777750535 | 13.89° C | 97% | 1009.8 hPa | 0.51 mm | - | - | - |
* Rain latest hour (hover to see other rain measurements)
** Current wind speed in m/s (hover to see current wind gust speed)